Simultaneous Nadir Overpasses (SNOs) Predictions

Prediction of SNOs between GOES-17 and NOAA-20 Satellite Orbit:

Table of predicted SNOs for the next 14.0 days since TLE Epoch: 4/9/2022
Index Date Time (GOES-17) GOES-17 Lat,Lon NOAA-20 Lat,Lon Distance(km) Time Diff (sec)
1 04/10/2022 10:52:45 -0.04,-137.21 0.87,-141.36 473.42 80
2 04/11/2022 10:31:21 -0.03,-137.20 -0.12,-136.83 42.48 80
3 04/13/2022 22:37:14 0.03,-137.18 -0.07,-137.60 47.91 80
4 04/14/2022 22:15:49 0.03,-137.17 0.92,-133.06 467.58 80
5 04/16/2022 10:40:18 -0.03,-137.16 0.22,-138.34 133.56 80
6 04/17/2022 10:18:54 -0.03,-137.15 -0.77,-133.80 381.42 80
7 04/18/2022 22:43:31 0.03,-137.12 -0.39,-139.11 226.36 80
8 04/19/2022 22:22:07 0.03,-137.10 0.60,-134.57 288.02 80
9 04/21/2022 10:46:35 -0.02,-137.08 0.60,-139.84 314.92 80
10 04/22/2022 10:25:11 -0.02,-137.05 -0.40,-135.30 198.98 80
